Hourly Data Report for March 04, 2017

All times are specified in Local Standard Time (LST). Add 1 hour to adjust for Daylight Saving Time where and when it is observed.

TORONTO CITY
ONTARIO

43°40'00.000" N
79°24'00.000" W
112.50 m
6158355
71508
XTO

Download Data

Hourly Data (March 2017)
Hourly Data Report for March 4, 2017
TIME Temp Definition
°C
Dew Point Definition
°C
Rel Hum Definition
%
Wind Dir Definition
10's deg

Wind Spd Definition
km/h
Visibility Definition
km
Stn Press Definition
kPa
Hmdx Definition


Wind Chill Definition


Weather Definition


00:00 -7.7 -13.3 64 LegendMM LegendMM   101.89     LegendNANA
01:00 -7.6 -10.6 79 LegendMM LegendMM   101.90     LegendNANA
02:00 -7.5 -10.5 79 LegendMM LegendMM   101.91     LegendNANA
03:00 -7.2 -11.5 72 LegendMM LegendMM   101.91     LegendNANA
04:00 -7.3 -11.6 71 LegendMM LegendMM   101.95     LegendNANA
05:00 -9.3 -14.5 66 LegendMM LegendMM   102.08     LegendNANA
06:00 -9.9 -17.4 54 LegendMM LegendMM   102.18     LegendNANA
07:00 -11.3 -19.0 53 LegendMM LegendMM   102.32     LegendNANA
08:00 -11.9 -19.4 54 LegendMM LegendMM   102.42     LegendNANA
09:00 -11.3 -19.0 53 LegendMM LegendMM   102.52     LegendNANA
10:00 -11.1 -21.9 41 LegendMM LegendMM   102.59     LegendNANA
11:00 -9.4 -20.5 40 LegendMM LegendMM   102.63     LegendNANA
12:00 -9.2 -22.4 33 LegendMM LegendMM   102.65     LegendNANA
13:00 -8.2 -21.8 33 LegendMM LegendMM   102.62     LegendNANA
14:00 -7.3 -20.3 34 LegendMM LegendMM   102.57     LegendNANA
15:00 -7.2 -21.5 31 LegendMM LegendMM   102.55     LegendNANA
16:00 -7.2 -23.6 26 LegendMM LegendMM   102.53     LegendNANA
17:00 -7.0 -21.7 30 LegendMM LegendMM   102.51     LegendNANA
18:00 -7.4 -21.3 32 LegendMM LegendMM   102.54     LegendNANA
19:00 -8.1 -21.2 34 LegendMM LegendMM   102.58     LegendNANA
20:00 -8.6 -20.8 37 LegendMM LegendMM   102.58     LegendNANA
21:00 -9.1 -20.4 40 LegendMM LegendMM   102.60     LegendNANA
22:00 -9.4 -19.7 43 LegendMM LegendMM   102.62     LegendNANA
23:00 -9.7 -19.0 47 LegendMM LegendMM   102.59     LegendNANA

Notes on Data Quality.

Legend

  • E = Estimated
  • M = Missing
  • NA = Not Available
Date modified: